Regional Weather Roundup
Issued by NWS

Home | Current Version | Previous Version | Graphics & Text | Print | Product List | Glossary On
Versions: 1 2 3 4 5 6 7 8 9 10 11 12 13 14 15 16 17 18 19 20 21 22 23 24 25 26 27 28 29 30 31 32 33 34 35 36 37 38 39 40 41 42 43 44 45 46 47 48 49 50
000
ASUS45 KABQ 230210
RWRNM
WEATHER ROUNDUP FOR NEW MEXICO
NATIONAL WEATHER SERVICE ALBUQUERQUE NM
800 PM MDT WED OCT 22 2014

NOTE: "FAIR" MEANS FEW OR NO CLOUDS BELOW 12,000 FEET AGL WITH NO
       SIGNIFICANT WEATHER OR OBSTRUCTIONS TO VISION.

      THIS PRODUCT IS RELEASED AS TWO VERSIONS.  ONE VERSION NEAR
      THE TOP OF THE HOUR CONTAINING PRELIMINARY DATA FROM ALBUQUERQUE
      AND OTHER STATIONS.  A FINAL VERSION WITH ADDITIONAL DATA IS
      ISSUED ABOUT 10 MINUTES AFTER THE HOUR.

NMZ501-503-504-510>518-230300-
NORTHWEST PLATEAU/NORTHCENTRAL MOUNTAINS

CITY           SKY/WX    TMP DP  RH WIND       PRES   REMARKS
FARMINGTON     CLEAR     58  34  40 N5        30.17R
LOS ALAMOS     CLEAR     57  33  40 W10       30.25S
SANTA FE       CLEAR     52  38  58 N6        30.19R
TAOS           CLEAR     52  28  40 NW5       30.25R
ANGEL FIRE     FAIR      41  33  73 CALM      30.31R

$$
NMZ402-403-502-505>509-230300-
WESTCENTRAL MOUNTAINS/SOUTHWEST MOUNTAINS

CITY           SKY/WX    TMP DP  RH WIND       PRES   REMARKS
GALLUP         CLEAR     53  37  54 SW3       30.23R
GRANTS         CLEAR     54  36  50 CALM      30.24R
SILVER CITY    CLEAR     63  48  59 S3        30.20R

$$
NMZ407-409-411-412-230300-
SOUTHERN DESERTS

CITY           SKY/WX    TMP DP  RH WIND       PRES   REMARKS
LORDSBURG      FAIR      63  50  63 MISG      30.12R
DEMING         CLEAR     63  51  65 W5        30.12R
LAS CRUCES     CLEAR     65  53  65 S3        30.14R
HOLLOMAN AFB   PTCLDY    66  53  62 SE3       30.11R
T OR C         CLEAR     66  49  54 S5        30.13R

$$
NMZ519>523-230300-
CENTRAL VALLEYS/CENTRAL HIGHLANDS

CITY           SKY/WX    TMP DP  RH WIND       PRES   REMARKS
ALBUQUERQUE    PTCLDY    66  40  38 S6        30.16R
DOUBLE EAGLE   PTCLDY    59  43  55 SW8       30.18R
MORIARTY ARPT  FAIR      54  41  61 W7        30.21R
CLINES CORNERS CLEAR     50  32  50 W7        30.23R
BELEN          NOT AVBL
SOCORRO        FAIR      63  47  57 W7        30.14R

$$
NMZ524>526-539-540-230300-
SOUTHCENTRAL MOUNTAINS

CITY           SKY/WX    TMP DP  RH WIND       PRES   REMARKS
RUIDOSO        CLEAR     55  45  67 CALM      30.26R

$$
NMZ527>531-230300-
NORTHEAST HIGHLANDS/NORTHEAST PLAINS

CITY           SKY/WX    TMP DP  RH WIND       PRES   REMARKS
LAS VEGAS      CLEAR     53  33  46 W7        30.20R
RATON          CLOUDY    60  40  47 NE6       30.17R
CLAYTON        PTCLDY    58  44  60 CALM      30.12R

$$
NMZ532>537-230300-
EASTCENTRAL PLAINS

CITY           SKY/WX    TMP DP  RH WIND       PRES   REMARKS
TUCUMCARI      CLEAR     63  54  72 S7        30.06R
CANNON AFB     CLEAR     60  51  72 S7        30.11R
CLOVIS AIRPORT PTCLDY    61  55  82 S12       30.14R

$$
NMZ028-029-538-230300-
SOUTHEAST PLAINS

CITY           SKY/WX    TMP DP  RH WIND       PRES   REMARKS
ROSWELL        CLEAR     63  58  83 S8        30.09R
CARLSBAD       CLEAR     63  59  87 S8        30.08R
HOBBS          CLEAR     61  59  94 SE5       30.14R


$$



USA.gov is the U.S. government's official web portal to all federal, state and local government web resources and services.